Regional Weather Roundup
Issued by NWS State College, PA

Home | Current Version | Previous Version | Graphics & Text | Print | Product List | Glossary On
Versions: 1 2 3 4 5 6 7 8 9 10 11 12 13 14 15 16 17 18 19 20 21 22 23 24 25 26 27 28 29 30 31 32 33 34 35 36 37 38 39 40 41 42 43 44 45 46 47 48 49 50
000
ASUS41 KCTP 221803
RWRCTP

REGIONAL WEATHER ROUNDUP
NATIONAL WEATHER SERVICE STATE COLLEGE PA
100 PM EST THU FEB 22 2018

Note: "fair" indicates few or no clouds below 12,000 feet with no
significant weather and/or obstructions to visibility.

* = STATION THAT DOES NOT REPORT PRECIPITATION /E.G. RAIN...SNOW...ETC/
    THUNDER OR FOG.

PAZ002>004-007>009-013>016-020>023-029>032-221900-
WESTERN PENNSYLVANIA

CITY           SKY/WX    TMP DP  RH WIND       PRES   REMARKS
ERIE           LGT SNOW  32  29  88 NE12      30.62F FOG
MEADVILLE      LGT RAIN  35  35 100 NE7       30.56R FOG
FRANKLIN*        N/A    N/A N/A N/A MISG        N/A
NEW CASTLE     LGT RAIN  40  39  97 N8        30.56R
BEAVER COUNTY  LGT RAIN  37  36  93 N7        30.51R
BUTLER*        LGT RAIN  39  36  89 NE12      30.49R
PITTSBURGH INT LGT RAIN  38  36  92 NE10      30.45R FOG
PITTSBURGH     CLOUDY    37  35  92 VRB7      30.44R
INDIANA*       CLOUDY    37  36  93 E10G17    30.50R FOG
LATROBE        LGT RAIN  39  39 100 NE12      30.44F FOG
WASHINGTON CO* LGT RAIN  40  38  93 NE12      30.45S FOG
$$

PAZ004>006-010>012-017>019-024>028-033>037-041-042-045-046-049>053-221900-
CENTRAL PENNSYLVANIA

CITY           SKY/WX    TMP DP  RH WIND       PRES   REMARKS
BRADFORD       MIX PCPN  33  31  92 E10       30.47F
DUBOIS         CLOUDY    35  32  88 E14       30.45F
CLEARFIELD     LGT RAIN  36  34  92 NE13      30.50F
JOHNSTOWN      LGT RAIN  35  32  88 E10       30.42F FOG
ALTOONA        RAIN      36  34  92 N10       30.50S FOG
STATE COLLEGE  RAIN      34  34 100 NE9       30.53S FOG
WILLIAMSPORT   RAIN      38  37  97 W6        30.57F FOG
SELINSGROVE    RAIN      38  36  92 N6        30.56S FOG
FT INDIANTOWN  LGT RAIN  40  40 100 E10       30.53S FOG
CAPITAL CITY   LGT RAIN  43  39  86 NE14      30.51F FOG
HARRISBURG     CLOUDY    42  38  85 NE7       30.51F FOG
YORK           CLOUDY    43  42  97 E8        30.47F FOG
$$

PAZ038>040-043-044-047-048-054-055-060>062-067>071-221900-
EASTERN PENNSYLVANIA

CITY           SKY/WX    TMP DP  RH WIND       PRES   REMARKS
SCRANTON       RAIN      39  37  93 NE8       30.53F FOG
MOUNT POCONO   LGT RAIN  34  34 100 NE9       30.49S FOG
ALLENTOWN      LGT RAIN  39  34  82 NE14      30.55S
QUAKERTOWN*    CLOUDY    39  39 100 NE6       30.53F FOG
READING        LGT RAIN  41  40  96 VRB5      30.52F
LANCASTER      LGT RAIN  42  39  89 E12       30.50F FOG
COATESVILLE      N/A     41  39  93 E8G17     30.51F FOG
POTTSTOWN      LGT RAIN  40  39  97 NE12      30.53F FOG
BLUE BELL      CLOUDY    41  41 100 E8        30.52F
DOYLESTOWN     CLOUDY    40  39  97 NE6       30.52F
WILLOW GROVE   NOT AVBL
NORTH PHILA    CLOUDY    46  40  79 E12       30.54F
PHILADELPHIA   CLOUDY    44  40  85 E13       30.52F
$$



USA.gov is the U.S. government's official web portal to all federal, state and local government web resources and services.